Regional Weather Roundup
Issued by NWS Albany, NY

Home | Current Version | Previous Version | Text Only | Print | Product List | Glossary On
Versions: 1 2 3 4 5 6 7 8 9 10 11 12 13 14 15 16 17 18 19 20 21 22 23 24 25 26 27 28 29 30 31 32 33 34 35 36 37 38 39 40 41 42 43 44 45 46 47 48 49 50
700
ASUS41 KALY 270210
RWRALY

NEW YORK STATE HOURLY WEATHER ROUNDUP
NATIONAL WEATHER SERVICE ALBANY NY
1000 PM EDT WED APR 26 2017

NOTE: "FAIR" INDICATES FEW OR NO CLOUDS BELOW 12,000 FEET WITH NO
SIGNIFICANT WEATHER AND/OR NO OBSTRUCTIONS TO VISIBILITY.

NYZ032-033-038>043-046>054-057>066-NYZ062>081-082-084-270300-
EAST


CITY           SKY/WX    TMP DP  RH WIND       PRES   REMARKS
ALBANY         CLOUDY    62  54  74 SE7       29.82S
GLENS FALLS    CLOUDY    62  53  72 NE6       29.82R
POUGHKEEPSIE   CLOUDY    58  56  93 CALM      29.82R
NEWBURGH       CLOUDY    59  59 100 CALM      29.85R
MONTGOMERY     CLOUDY    58  56  93 CALM      29.83R
WHITE PLAINS   CLOUDY    58  56  93 CALM      29.83R
ISLIP          CLOUDY    61  58  90 NE3       29.83R
NEW YORK CITY  CLOUDY    61  56  83 E6        29.83R
CENTRAL PARK   CLOUDY    59  58  96 CALM      29.86R FOG
$$

NYZ005>009-017-018-044>046-055-056-270300-
CENTRAL


CITY           SKY/WX    TMP DP  RH WIND       PRES   REMARKS
FULTON         CLEAR     60  54  80 E3        29.74R
SYRACUSE       PTCLDY    62  56  80 E8        29.74R
ROME           CLEAR     62  56  80 E9        29.77S
ELMIRA         CLEAR     62  53  72 CALM      29.75R
BINGHAMTON     CLEAR     62  54  74 S5        29.79R
MONTICELLO     MOCLDY    55  55 100 SE3       29.86R
$$

NYZ026>034-041>043-087-270300-
NORTH


CITY           SKY/WX    TMP DP  RH WIND       PRES   REMARKS
WATERTOWN      CLEAR     58  55  90 SE5       29.74R
FORT DRUM      NOT AVBL
OGDENSBURG     FAIR      58  55  89 E5        29.77R
MASSENA        CLEAR     57  54  89 NE10      29.79R
SARANAC LAKE   CLEAR     55  54  96 NE5       29.79R
PLATTSBURGH    CLOUDY    56  51  84 S3        29.80R
$$

NYZ001>004-010>016-019>021-085-270300-
WEST


CITY           SKY/WX    TMP DP  RH WIND       PRES   REMARKS
NIAGARA FALLS  CLEAR     59  52  77 NW7       29.67R
BUFFALO        PTCLDY    62  55  77 NE3       29.67R
DUNKIRK        PTCLDY    60  55  83 VRB3      29.68R
JAMESTOWN      CLEAR     66  52  59 S10       29.72R
WELLSVILLE     CLEAR     69  53  56 S8        29.78R
ROCHESTER      CLEAR     65  56  72 SE8       29.71R
PENN YAN       CLEAR     62  54  74 CALM      29.74S
$$

             KEY
       WCI = WIND CHILL INDEX
       VSB = VISIBILITY
       HX  = HEAT INDEX
$$




USA.gov is the U.S. government's official web portal to all federal, state and local government web resources and services.